N8XSF-1 Weather Reports


time (UTC)temp
C
wind
direction
speed
KPH
gust
KPH
rain 1hr
cm
rain 24hr
cm
rain mn
cm
humidity
%
barometer
mb
20260506165321 13 248 8.0 29.0 0.00 0.86 0.15 47 1010.0
20260506164844 13 252 11.3 29.0 0.00 0.86 0.15 47 1010.3
20260506164341 13 211 8.0 33.8 0.00 0.86 0.15 46 1010.3
20260506163824 13 227 19.3 33.8 0.00 0.86 0.15 48 1010.3
20260506163314 13 218 6.4 19.3 0.00 0.86 0.15 47 1010.2
20260506162823 13 254 9.7 19.3 0.00 0.86 0.15 48 1010.2
20260506162326 12 284 3.2 14.5 0.00 0.86 0.15 51 1010.2
20260506161835 12 284 9.7 16.1 0.00 0.86 0.15 47 1010.1
20260506161324 12 285 3.2 19.3 0.00 0.86 0.15 50 1010.1
20260506160842 12 290 9.7 19.3 0.00 0.86 0.15 48 1010.1
20260506160328 12 263 4.8 14.5 0.00 0.86 0.15 50 1010.0
20260506155814 12 273 3.2 20.9 0.00 0.86 0.15 50 1010.0
20260506155325 12 259 9.7 24.1 0.00 0.86 0.15 47 1010.0
20260506154814 12 282 12.9 24.1 0.00 0.86 0.15 48 1009.9
20260506154320 12 264 6.4 11.3 0.00 0.86 0.15 48 1009.9
20260506153813 12 286 4.8 14.5 0.00 0.86 0.15 49 1009.9
20260506153339 12 304 8.0 19.3 0.00 0.86 0.15 50 1009.8
20260506152822 12 267 8.0 16.1 0.00 0.86 0.15 48 1009.8
20260506152327 12 286 8.0 16.1 0.00 0.86 0.15 50 1009.8
20260506151815 12 282 4.8 16.1 0.00 0.86 0.15 50 1009.7
20260506151319 12 297 8.0 14.5 0.00 0.86 0.15 49 1009.7
20260506150828 11 282 0.0 11.3 0.00 0.86 0.15 49 1009.7
20260506150313 11 283 1.6 14.5 0.00 0.86 0.15 50 1009.5
20260506145831 11 290 4.8 14.5 0.00 0.86 0.15 50 1009.5
20260506145337 11 281 6.4 14.5 0.00 0.86 0.15 52 1009.5
20260506144822 11 274 4.8 14.5 0.00 0.86 0.15 51 1009.3
20260506144333 11 271 4.8 12.9 0.00 0.86 0.15 50 1009.3
20260506143849 11 285 4.8 11.3 0.00 0.86 0.15 50 1009.3
20260506143315 11 287 4.8 11.3 0.00 0.86 0.15 52 1009.2
20260506142832 11 272 4.8 16.1 0.00 0.86 0.15 52 1009.2
20260506142318 11 274 3.2 16.1 0.00 0.86 0.15 51 1009.2
20260506141817 11 290 0.0 8.0 0.00 0.86 0.15 57 1009.2
20260506141338 11 290 1.6 17.7 0.00 0.86 0.15 58 1009.2
20260506140845 11 295 3.2 17.7 0.00 0.86 0.15 55 1009.2
20260506140351 11 304 0.0 12.9 0.00 0.86 0.15 57 1009.1
20260506135904 11 306 4.8 12.9 0.00 0.86 0.15 56 1009.1
20260506135328 11 274 0.0 12.9 0.00 0.86 0.15 61 1009.1
20260506134837 10 281 3.2 11.3 0.00 0.86 0.15 59 1009.1
20260506134324 10 287 3.2 8.0 0.00 0.86 0.15 62 1009.1
20260506133830 10 287 3.2 9.7 0.00 0.86 0.15 63 1009.1
20260506133341 10 288 3.2 9.7 0.00 0.86 0.15 64 1008.7
20260506132826 10 286 3.2 9.7 0.00 0.86 0.15 68 1008.7
20260506132314 10 298 1.6 11.3 0.00 0.86 0.15 67 1008.7
20260506131853 10 299 3.2 11.3 0.00 0.86 0.15 68 1008.7
20260506131320 9 295 0.0 6.4 0.00 0.86 0.15 72 1008.7
20260506130828 9 294 0.0 4.8 0.00 0.86 0.15 74 1008.7
20260506130317 8 296 0.0 9.7 0.00 0.86 0.15 75 1008.4
20260506125839 8 296 1.6 9.7 0.00 0.86 0.15 76 1008.4
20260506125326 8 296 3.2 14.5 0.00 0.86 0.15 79 1008.4
20260506124835 7 298 1.6 14.5 0.00 0.86 0.15 82 1008.5
20260506124319 7 301 3.2 11.3 0.00 0.86 0.15 83 1008.5
20260506123829 7 288 1.6 11.3 0.00 0.86 0.15 83 1008.5
20260506123314 7 284 0.0 9.7 0.00 0.86 0.15 82 1008.2
20260506122822 7 285 3.2 9.7 0.00 0.86 0.15 82 1008.2
20260506122331 7 246 0.0 1.6 0.00 0.86 0.15 81 1008.2
20260506121816 7 246 0.0 1.6 0.00 0.86 0.15 81 1008.0
20260506121325 7 246 0.0 3.2 0.00 0.86 0.15 81 1008.0
20260506120824 7 246 0.0 3.2 0.00 0.86 0.15 81 1008.0
20260506120333 7 246 0.0 1.6 0.00 0.86 0.15 80 1007.7
20260506115830 7 246 0.0 1.6 0.00 0.86 0.15 80 1007.7
20260506115325 7 246 0.0 0.0 0.00 0.86 0.15 80 1007.7
20260506114831 7 246 0.0 0.0 0.00 0.86 0.15 80 1007.6
20260506114322 7 246 0.0 0.0 0.00 0.86 0.15 80 1007.6
20260506113845 6 246 0.0 3.2 0.00 0.86 0.15 80 1007.6
20260506113332 7 246 0.0 3.2 0.00 0.86 0.15 80 1007.6
20260506112831 6 246 0.0 3.2 0.00 0.86 0.15 80 1007.6
20260506112319 6 246 0.0 6.4 0.00 0.86 0.15 80 1007.6
20260506111830 6 246 0.0 6.4 0.00 0.86 0.15 80 1007.5
20260506111322 6 246 0.0 6.4 0.00 0.86 0.15 80 1007.5
20260506110814 6 246 1.6 4.8 0.00 0.86 0.15 80 1007.5
20260506110326 6 245 1.6 6.4 0.00 0.86 0.15 80 1007.0
20260506105815 6 245 1.6 3.2 0.00 0.86 0.15 80 1007.0
20260506105328 6 245 1.6 8.0 0.00 0.86 0.15 80 1007.0
20260506104820 6 245 1.6 8.0 0.00 0.86 0.15 80 1006.6
20260506104316 6 240 0.0 3.2 0.00 0.86 0.15 80 1006.6
20260506103830 6 240 1.6 6.4 0.00 0.86 0.15 80 1006.6
20260506103321 6 235 0.0 6.4 0.00 0.86 0.15 80 1006.4
20260506102819 6 234 0.0 0.0 0.00 0.86 0.15 80 1006.4
20260506102329 6 234 0.0 6.4 0.00 0.86 0.15 80 1006.4
20260506101824 6 234 0.0 8.0 0.00 0.86 0.15 80 1006.8
20260506101315 6 234 3.2 11.3 0.00 0.86 0.15 80 1006.8
20260506100838 6 245 3.2 11.3 0.00 0.86 0.15 80 1006.8
20260506100325 6 250 3.2 8.0 0.00 0.86 0.15 80 1006.6
20260506095814 6 244 3.2 8.0 0.00 0.86 0.15 80 1006.6
20260506095327 6 250 3.2 8.0 0.00 0.86 0.15 80 1006.6
20260506094815 6 235 0.0 6.4 0.00 0.86 0.15 80 1006.3
20260506094324 6 233 1.6 6.4 0.00 0.86 0.15 81 1006.3
20260506093821 6 234 1.6 3.2 0.00 0.86 0.15 81 1006.3
20260506093354 6 233 1.6 3.2 0.00 0.86 0.15 81 1006.1
20260506092854 6 231 1.6 3.2 0.00 0.86 0.15 80 1006.1
20260506092324 6 229 0.0 1.6 0.00 0.86 0.15 80 1006.1
20260506091817 6 229 0.0 0.0 0.00 0.86 0.15 80 1006.7
20260506091327 6 229 0.0 3.2 0.00 0.86 0.15 80 1006.7
20260506090821 6 230 0.0 3.2 0.00 0.86 0.15 80 1006.7
20260506090331 6 230 1.6 6.4 0.00 0.86 0.15 80 1006.6
20260506085819 6 230 1.6 6.4 0.03 0.86 0.15 80 1006.6
20260506085329 6 233 1.6 3.2 0.03 0.86 0.15 80 1006.6
20260506084820 6 233 0.0 0.0 0.03 0.86 0.15 80 1006.6
20260506084341 6 233 0.0 0.0 0.03 0.86 0.15 80 1006.6
20260506083827 6 233 0.0 0.0 0.03 0.86 0.15 80 1006.6
20260506083337 6 233 0.0 1.6 0.03 0.86 0.15 80 1006.5
20260506082847 6 233 0.0 3.2 0.03 0.86 0.15 81 1006.5
20260506082315 6 233 1.6 3.2 0.03 0.86 0.15 81 1006.5
20260506081825 6 233 1.6 6.4 0.05 0.86 0.15 80 1006.2
20260506081332 6 234 1.6 3.2 0.05 0.86 0.15 80 1006.2
20260506080837 6 235 1.6 3.2 0.05 0.86 0.15 80 1006.2
20260506080323 6 235 0.0 0.0 0.05 0.89 0.15 80 1005.8
20260506073328 6 235 0.0 0.0 0.05 0.86 0.13 80 1006.6
20260506072823 6 235 0.0 0.0 0.05 0.86 0.13 80 1006.6
20260506072343 6 235 0.0 1.6 0.05 0.86 0.13 80 1006.6
20260506071832 6 235 0.0 3.2 0.03 0.84 0.10 80 1006.8
20260506071317 6 235 0.0 6.4 0.03 0.84 0.10 80 1006.8
20260506070844 6 236 1.6 6.4 0.05 0.84 0.10 80 1006.8
20260506070314 7 257 1.6 6.4 0.05 0.84 0.10 80 1006.3
20260506062325 7 258 0.0 3.2 0.05 0.81 0.08 80 1006.7
20260506061815 7 258 0.0 6.4 0.05 0.81 0.08 80 1006.8
20260506061353 7 259 1.6 4.8 0.05 0.81 0.08 80 1006.8
20260506060825 7 269 0.0 3.2 0.03 0.79 0.05 79 1006.8
20260506060335 7 269 0.0 3.2 0.03 0.79 0.05 80 1006.6
20260506051319 7 269 0.0 0.0 0.03 0.76 0.03 80 1006.8
20260506050829 7 269 0.0 0.0 0.03 0.76 0.03 80 1006.8
20260506050316 7 269 0.0 0.0 0.03 0.76 0.03 80 1006.7
20260506044821 7 269 0.0 0.0 0.03 0.76 0.03 80 1006.6
20260506044317 7 269 0.0 0.0 0.03 0.76 0.03 80 1006.6
20260506043826 7 269 0.0 0.0 0.03 0.76 0.03 80 1006.6
20260506043341 7 269 0.0 0.0 0.00 0.74 0.00 80 1006.7
20260506042838 7 269 0.0 0.0 0.00 0.74 0.00 80 1006.7
20260506042345 7 269 0.0 0.0 0.00 0.74 0.00 80 1006.7
20260506041815 7 269 0.0 0.0 0.00 0.74 0.00 80 1006.7
20260506041332 7 269 0.0 0.0 0.00 0.74 0.00 80 1006.7
20260506040823 7 269 0.0 0.0 0.00 0.74 0.00 80 1006.7
20260506040319 7 269 0.0 0.0 0.00 0.74 0.74 80 1006.6
20260506035830 7 269 0.0 0.0 0.00 0.74 0.74 80 1006.6
20260506035321 7 269 0.0 0.0 0.03 0.74 0.74 80 1006.6
20260506034828 7 269 0.0 0.0 0.03 0.74 0.74 80 1006.5
20260506034318 7 269 0.0 0.0 0.03 0.74 0.74 80 1006.5
20260506033833 7 269 0.0 0.0 0.03 0.74 0.74 80 1006.5
20260506033319 7 269 0.0 0.0 0.03 0.74 0.74 80 1006.5
20260506032832 7 269 0.0 0.0 0.03 0.74 0.74 80 1006.5
20260506032324 7 269 0.0 0.0 0.03 0.74 0.74 80 1006.5
20260506031843 7 269 0.0 0.0 0.03 0.74 0.74 80 1006.6
20260506031336 7 269 0.0 0.0 0.03 0.74 0.74 80 1006.6
20260506030825 7 269 0.0 1.6 0.05 0.74 0.74 80 1006.6
20260506030329 7 269 0.0 3.2 0.05 0.74 0.74 80 1006.6
20260506025817 7 269 0.0 6.4 0.05 0.74 0.74 80 1006.6
20260506025346 7 269 1.6 6.4 0.05 0.71 0.71 80 1006.6
20260506024810 8 269 0.0 9.7 0.05 0.71 0.71 81 1006.6
20260506024353 8 261 4.8 9.7 0.05 0.71 0.71 80 1006.6
20260506023819 8 261 3.2 9.7 0.08 0.71 0.71 79 1006.6
20260506023326 8 258 0.0 8.0 0.08 0.71 0.71 79 1006.6
20260506022831 8 253 1.6 8.0 0.08 0.71 0.71 79 1006.6
20260506022326 8 253 0.0 3.2 0.08 0.71 0.71 79 1006.6
20260506021832 8 253 0.0 8.0 0.08 0.71 0.71 79 1006.7
20260506021323 9 253 1.6 8.0 0.10 0.71 0.71 79 1006.7
20260506020816 9 252 0.0 0.0 0.08 0.69 0.69 79 1006.7
20260506020335 9 252 0.0 0.0 0.10 0.69 0.69 79 1006.5
20260506015819 9 252 0.0 6.4 0.10 0.69 0.69 79 1006.5
20260506015326 9 252 0.0 6.4 0.08 0.66 0.66 79 1006.5
20260506014814 9 252 0.0 8.0 0.08 0.66 0.66 79 1006.3
20260506014321 9 252 0.0 8.0 0.08 0.66 0.66 79 1006.3
20260506013853 9 255 0.0 8.0 0.08 0.64 0.64 79 1006.3
20260506013321 9 258 3.2 6.4 0.08 0.64 0.64 79 1006.0
20260506012852 9 259 0.0 0.0 0.08 0.64 0.64 79 1006.0
20260506012318 9 259 0.0 0.0 0.08 0.64 0.64 79 1006.0
20260506011830 9 259 0.0 0.0 0.08 0.64 0.64 79 1006.0
20260506011319 9 259 0.0 0.0 0.05 0.61 0.61 79 1006.0
20260506010903 9 259 0.0 0.0 0.05 0.61 0.61 80 1006.0
20260506010332 9 259 0.0 0.0 0.05 0.58 0.58 80 1005.7
20260506005822 10 259 0.0 0.0 0.05 0.58 0.58 80 1005.7
20260506005334 10 259 0.0 0.0 0.05 0.58 0.58 80 1005.7
20260506004824 10 259 0.0 0.0 0.05 0.58 0.58 80 1005.8
20260506004336 10 259 0.0 0.0 0.05 0.58 0.58 80 1005.8
20260506003831 9 259 0.0 0.0 0.05 0.56 0.56 80 1005.8
20260506003337 10 259 0.0 0.0 0.05 0.56 0.56 80 1005.9
20260506002826 10 259 0.0 0.0 0.08 0.56 0.56 80 1005.9
20260506002314 10 259 0.0 0.0 0.08 0.56 0.56 80 1005.9
20260506001825 10 259 0.0 0.0 0.08 0.56 0.56 80 1005.9
20260506001317 10 259 0.0 0.0 0.10 0.56 0.56 80 1005.9
20260506000841 10 259 0.0 0.0 0.10 0.56 0.56 81 1005.9
20260506000330 10 259 0.0 0.0 0.10 0.53 0.53 81 1005.7
20260505235819 10 259 0.0 0.0 0.10 0.53 0.53 81 1005.7
20260505235339 10 259 0.0 0.0 0.10 0.53 0.53 81 1005.7
20260505234826 10 259 0.0 0.0 0.10 0.53 0.53 81 1005.7
20260505234332 10 262 0.0 0.0 0.10 0.53 0.53 81 1005.7
20260505233826 10 262 0.0 0.0 0.08 0.51 0.51 81 1005.7
20260505233337 10 262 0.0 0.0 0.08 0.51 0.51 81 1005.6
20260505232813 10 262 0.0 0.0 0.08 0.48 0.48 81 1005.6
20260505232321 10 262 0.0 0.0 0.08 0.48 0.48 82 1005.6
20260505231830 10 262 0.0 0.0 0.08 0.48 0.48 82 1005.6
20260505231354 10 262 0.0 0.0 0.05 0.46 0.46 81 1005.6
20260505230826 10 263 0.0 0.0 0.05 0.46 0.46 82 1005.6
20260505230318 10 263 0.0 0.0 0.03 0.43 0.43 82 1005.7
20260505225823 10 263 0.0 0.0 0.03 0.43 0.43 82 1005.7
20260505225336 10 263 0.0 0.0 0.03 0.43 0.43 82 1005.7
20260505224830 10 263 0.0 0.0 0.03 0.43 0.43 82 1005.5
20260505224321 10 263 0.0 0.0 0.03 0.43 0.43 82 1005.5
20260505223831 10 263 0.0 0.0 0.05 0.43 0.43 82 1005.5
20260505223327 10 263 0.0 0.0 0.05 0.43 0.43 82 1005.5
20260505222832 10 263 0.0 0.0 0.03 0.41 0.41 82 1005.5
20260505222321 10 263 0.0 0.0 0.03 0.41 0.41 82 1005.5
20260505221841 10 263 0.0 0.0 0.03 0.41 0.41 82 1005.4
20260505221332 10 263 0.0 0.0 0.05 0.41 0.41 81 1005.4
20260505220838 10 263 0.0 0.0 0.05 0.41 0.41 82 1005.4
20260505220324 10 263 0.0 0.0 0.08 0.41 0.41 82 1005.3
20260505215830 10 263 0.0 0.0 0.08 0.41 0.41 82 1005.3
20260505215340 10 263 0.0 0.0 0.10 0.41 0.41 82 1005.3
20260505214817 10 263 0.0 0.0 0.10 0.41 0.41 82 1005.3
20260505214325 10 263 0.0 3.2 0.10 0.41 0.41 82 1005.3
20260505213822 10 263 0.0 3.2 0.10 0.38 0.38 82 1005.3
20260505213330 10 263 0.0 3.2 0.10 0.38 0.38 82 1005.1
20260505212821 10 263 0.0 6.4 0.10 0.38 0.38 82 1005.1
20260505212316 10 263 0.0 6.4 0.10 0.38 0.38 82 1005.1
20260505211901 10 263 0.0 0.0 0.13 0.38 0.38 82 1005.7
20260505211331 10 263 0.0 8.0 0.10 0.36 0.36 82 1005.7
20260505210818 10 263 0.0 9.7 0.10 0.36 0.36 82 1005.7
20260505210320 10 262 1.6 9.7 0.10 0.33 0.33 82 1005.6
20260505205826 10 268 0.0 6.4 0.10 0.33 0.33 82 1005.6
20260505205317 10 268 0.0 6.4 0.08 0.30 0.30 82 1005.6
20260505204828 10 268 0.0 0.0 0.10 0.30 0.30 82 1005.6
20260505204317 10 268 0.0 6.4 0.10 0.30 0.30 82 1005.6
20260505203826 10 268 0.0 9.7 0.10 0.28 0.28 82 1005.6
20260505203348 10 268 1.6 9.7 0.10 0.28 0.28 82 1005.6
20260505202834 10 271 0.0 0.0 0.13 0.28 0.28 82 1005.6
20260505202344 10 271 0.0 6.4 0.15 0.28 0.28 82 1005.6
20260505201814 10 271 0.0 4.8 0.13 0.25 0.25 82 1005.6
20260505201312 10 271 0.0 1.6 0.15 0.25 0.25 82 1005.6
20260505200829 10 271 0.0 9.7 0.15 0.25 0.25 82 1005.6
20260505200317 10 271 1.6 9.7 0.15 0.23 0.23 82 1005.6
20260505195830 10 281 0.0 9.7 0.15 0.23 0.23 82 1005.6
20260505195347 10 281 1.6 9.7 0.15 0.23 0.23 82 1005.6
20260505194834 10 281 1.6 11.3 0.15 0.20 0.20 82 1006.1
20260505194318 11 295 1.6 14.5 0.15 0.20 0.20 82 1006.1
20260505193828 11 256 3.2 9.7 0.13 0.18 0.18 82 1006.1
20260505193403 11 256 3.2 9.7 0.13 0.18 0.18 81 1006.1
20260505192829 11 256 1.6 14.5 0.13 0.15 0.15 81 1006.1
20260505192314 11 254 1.6 14.5 0.10 0.13 0.13 80 1006.1
20260505191829 11 258 4.8 14.5 0.10 0.13 0.13 79 1006.0
20260505191332 11 261 1.6 14.5 0.08 0.10 0.10 79 1006.0
20260505190823 12 254 4.8 14.5 0.08 0.10 0.10 78 1006.0
20260505190332 12 257 8.0 14.5 0.05 0.08 0.08 76 1005.7
20260505185821 12 246 11.3 16.1 0.05 0.08 0.08 75 1005.7
20260505185324 12 242 8.0 16.1 0.05 0.08 0.08 74 1005.7
20260505184843 12 252 3.2 14.5 0.03 0.05 0.05 73 1005.5
20260505184344 12 264 4.8 12.9 0.03 0.05 0.05 71 1005.5
20260505183825 13 267 6.4 16.1 0.03 0.05 0.05 68 1005.5
20260505183315 13 240 9.7 16.1 0.03 0.05 0.05 66 1005.8
20260505182818 13 234 11.3 17.7 0.00 0.03 0.03 64 1005.8
20260505182327 13 224 9.7 17.7 0.00 0.03 0.03 64 1005.8
20260505181821 13 246 11.3 19.3 0.00 0.03 0.03 63 1005.1
20260505181344 13 242 9.7 19.3 0.00 0.03 0.03 63 1005.1
20260505180833 14 242 12.9 19.3 0.00 0.03 0.03 61 1005.1
20260505180316 14 209 8.0 16.1 0.00 0.03 0.03 61 1005.0
20260505175832 14 224 8.0 16.1 0.00 0.03 0.03 61 1005.0
20260505175318 14 223 4.8 14.5 0.00 0.03 0.03 60 1005.0
20260505174826 14 225 6.4 12.9 0.00 0.03 0.03 58 1004.7
20260505174315 14 229 8.0 14.5 0.00 0.03 0.03 57 1004.7
20260505173820 14 216 8.0 14.5 0.00 0.03 0.03 57 1004.7
20260505173341 14 244 1.6 14.5 0.00 0.03 0.03 56 1004.2
20260505172826 15 236 6.4 14.5 0.00 0.03 0.03 55 1004.2
20260505172328 15 245 8.0 12.9 0.00 0.03 0.03 55 1004.2
20260505171821 15 252 4.8 12.9 0.00 0.03 0.03 57 1005.0
20260505171313 14 270 6.4 12.9 0.00 0.03 0.03 56 1005.0
20260505170819 14 227 4.8 11.3 0.00 0.03 0.03 56 1005.0
20260505170331 14 228 9.7 17.7 0.00 0.03 0.03 54 1004.9
20260505165821 14 246 8.0 17.7 0.00 0.03 0.03 55 1004.9